KF6ILA Weather Reports


time (UTC)temp
C
wind
direction
speed
KPH
gust
KPH
rain 1hr
cm
rain 24hr
cm
rain mn
cm
humidity
%
barometer
mb
20260506203854 18 282 11.3 17.7 0.00 0.00 0.00 63 1015.9
20260506195421 17 334 3.2 16.1 0.00 0.00 0.00 58 1016.5
20260506193433 17 325 8.0 14.5 0.00 0.00 0.00 63 1016.6
20260506191445 18 4 3.2 14.5 0.00 0.00 0.00 60 1016.7
20260506190451 20 74 9.7 19.3 0.00 0.00 0.00 49 1015.8
20260506185954 20 95 6.4 19.3 0.00 0.00 0.00 43 1015.9
20260506185457 20 54 8.0 20.9 0.00 0.00 0.00 45 1016.0
20260506185000 19 82 12.9 20.9 0.00 0.00 0.00 48 1016.0
20260506184503 19 97 12.9 19.3 0.00 0.00 0.00 47 1016.0
20260506184005 18 32 4.8 20.9 0.00 0.03 0.00 45 1016.0
20260506183509 18 55 8.0 20.9 0.00 0.03 0.00 46 1016.0
20260506183012 18 79 9.7 19.3 0.00 0.03 0.00 50 1016.1
20260506182514 17 78 9.7 19.3 0.00 0.03 0.00 53 1016.1
20260506182018 17 33 8.0 12.9 0.00 0.03 0.00 50 1016.1
20260506181521 16 47 6.4 12.9 0.00 0.03 0.00 53 1016.2
20260506181024 16 318 1.6 11.3 0.00 0.03 0.00 60 1016.3
20260506174539 16 228 3.2 8.0 0.00 0.05 0.00 61 1016.4
20260506173047 16 230 1.6 12.9 0.00 0.08 0.00 62 1016.4
20260506172054 16 312 4.8 14.5 0.00 0.10 0.00 56 1016.5
20260506171557 16 23 4.8 14.5 0.00 0.10 0.00 46 1016.6
20260506171059 16 92 6.4 14.5 0.00 0.10 0.00 51 1016.5
20260506170602 16 172 4.8 14.5 0.00 0.10 0.00 53 1016.5
20260506170106 16 84 3.2 11.3 0.00 0.13 0.00 52 1016.5
20260506165609 16 141 1.6 16.1 0.00 0.13 0.00 46 1016.5
20260506165112 16 37 6.4 16.1 0.00 0.15 0.00 53 1016.4
20260506164615 16 38 3.2 19.3 0.00 0.15 0.00 55 1016.4
20260506164117 15 71 12.9 19.3 0.00 0.15 0.00 58 1015.6
20260506163124 15 281 3.2 8.0 0.00 0.15 0.00 60 1015.5
20260506162627 14 345 4.8 8.0 0.00 0.18 0.00 61 1015.4
20260506161136 13 317 1.6 6.4 0.00 0.18 0.00 67 1015.4
20260506160639 13 292 3.2 6.4 0.00 0.20 0.00 68 1015.5
20260506155148 12 305 4.8 11.3 0.00 0.20 0.00 67 1015.6
20260506154651 12 310 4.8 9.7 0.00 0.20 0.00 67 1015.4
20260506154154 12 318 4.8 11.3 0.00 0.23 0.00 68 1015.4
20260506153656 12 321 6.4 11.3 0.00 0.23 0.00 68 1015.4
20260506153200 12 309 6.4 11.3 0.00 0.23 0.00 69 1015.4
20260506152703 11 319 8.0 11.3 0.00 0.25 0.00 69 1015.3
20260506152206 11 317 4.8 12.9 0.00 0.25 0.00 70 1015.3
20260506151709 11 313 6.4 12.9 0.00 0.25 0.00 71 1015.3
20260506151212 11 317 6.4 11.3 0.00 0.25 0.00 72 1015.4
20260506150715 11 319 4.8 9.7 0.00 0.25 0.00 73 1015.4
20260506150217 10 318 3.2 9.7 0.00 0.25 0.00 74 1015.3
20260506145721 10 298 4.8 12.9 0.00 0.25 0.00 75 1015.2
20260506145224 10 306 3.2 12.9 0.00 0.25 0.00 76 1015.4
20260506144727 10 287 6.4 11.3 0.00 0.25 0.00 77 1015.3
20260506144230 9 295 6.4 12.9 0.00 0.25 0.00 77 1015.3
20260506143733 9 291 4.8 12.9 0.00 0.25 0.25 78 1015.2
20260506143236 8 292 8.0 12.9 0.00 0.25 0.25 79 1015.1
20260506142739 8 289 8.0 14.5 0.00 0.25 0.25 80 1015.1
20260506142242 8 300 6.4 14.5 0.00 0.25 0.25 82 1015.0
20260506141745 8 307 6.4 14.5 0.00 0.25 0.25 85 1014.9
20260506141248 7 314 3.2 8.0 0.00 0.28 0.25 86 1015.0
20260506140835 7 301 4.8 9.7 0.00 0.28 0.25 87 1014.9
20260506140751 7 301 4.8 9.7 0.00 0.28 0.25 87 1014.9
20260506140254 7 298 6.4 11.3 0.00 0.28 0.25 88 1014.9
20260506135757 6 295 4.8 11.3 0.00 0.30 0.25 89 1014.9
20260506135300 6 300 6.4 11.3 0.00 0.33 0.25 89 1015.0
20260506134803 6 311 4.8 11.3 0.00 0.33 0.25 90 1014.9
20260506134306 6 299 3.2 14.5 0.00 0.33 0.25 90 1014.8
20260506133809 6 316 6.4 16.1 0.00 0.36 0.25 91 1014.7
20260506133312 6 277 8.0 16.1 0.00 0.36 0.25 91 1014.6
20260506132815 6 286 8.0 16.1 0.00 0.36 0.25 91 1014.7
20260506132318 5 293 8.0 19.3 0.00 0.36 0.25 92 1014.6
20260506131821 5 283 9.7 19.3 0.00 0.38 0.25 92 1014.6
20260506131323 5 287 8.0 16.1 0.00 0.41 0.25 93 1014.4
20260506130827 5 277 11.3 19.3 0.00 0.43 0.25 92 1014.4
20260506130330 5 280 11.3 19.3 0.00 0.46 0.25 93 1014.4
20260506125833 5 282 8.0 17.7 0.00 0.46 0.25 92 1014.3
20260506125336 5 280 11.3 19.3 0.00 0.48 0.25 93 1014.1
20260506124839 5 290 9.7 19.3 0.00 0.51 0.25 93 1014.1
20260506124441 5 279 9.7 20.9 0.00 0.51 0.25 93 1014.0
20260506124342 5 279 9.7 20.9 0.00 0.51 0.25 93 1014.0
20260506123845 5 292 9.7 20.9 0.00 0.53 0.25 93 1014.0
20260506123348 5 266 11.3 22.5 0.00 0.53 0.25 93 1014.0
20260506122851 5 284 9.7 22.5 0.00 0.58 0.25 93 1014.0
20260506122354 5 270 11.3 22.5 0.00 0.58 0.25 94 1013.9
20260506121857 5 286 9.7 20.9 0.00 0.58 0.25 94 1013.9
20260506121359 5 289 8.0 17.7 0.00 0.58 0.25 94 1013.9
20260506120903 5 281 8.0 22.5 0.00 0.58 0.25 94 1013.9
20260506120406 5 277 9.7 24.1 0.00 0.58 0.25 95 1013.8
20260506115909 5 266 14.5 27.4 0.00 0.58 0.25 95 1013.8
20260506115412 5 264 17.7 27.4 0.00 0.61 0.25 95 1013.9
20260506114915 5 270 8.0 24.1 0.00 0.61 0.25 95 1013.8
20260506114418 5 263 14.5 25.7 0.00 0.61 0.25 95 1013.6
20260506113921 5 270 16.1 25.7 0.00 0.61 0.25 96 1013.6
20260506113424 5 260 9.7 25.7 0.00 0.61 0.25 97 1013.6
20260506112927 5 275 16.1 29.0 0.00 0.61 0.25 97 1013.8
20260506112430 5 272 16.1 29.0 0.00 0.61 0.25 97 1013.7
20260506111932 4 274 14.5 20.9 0.00 0.61 0.25 97 1013.7
20260506111508 5 279 11.3 22.5 0.00 0.61 0.25 97 1013.7
20260506111436 5 279 11.3 22.5 0.00 0.61 0.25 97 1013.7
20260506110939 5 272 14.5 22.5 0.00 0.64 0.25 97 1013.6
20260506110442 4 273 12.9 17.7 0.00 0.64 0.25 97 1013.5
20260506105945 5 273 11.3 20.9 0.00 0.64 0.25 97 1013.5
20260506105520 5 268 11.3 22.5 0.00 0.64 0.25 97 1013.5
20260506105448 5 268 11.3 22.5 0.00 0.64 0.25 97 1013.5
20260506104454 5 284 11.3 24.1 0.00 0.64 0.25 97 1013.6
20260506103957 5 270 17.7 27.4 0.00 0.66 0.25 97 1013.6
20260506103500 5 268 14.5 27.4 0.00 0.66 0.25 97 1013.6
20260506103004 5 274 14.5 24.1 0.00 0.69 0.25 97 1013.6
20260506102506 5 276 14.5 27.4 0.00 0.69 0.25 97 1013.5
20260506102009 5 262 17.7 27.4 0.00 0.71 0.25 97 1013.6
20260506101551 5 258 16.1 25.7 0.00 0.71 0.25 97 1013.4
20260506101512 5 258 16.1 25.7 0.00 0.71 0.25 97 1013.4
20260506101049 5 270 14.5 27.4 0.00 0.74 0.25 97 1013.5
20260506101015 5 270 14.5 27.4 0.00 0.74 0.25 97 1013.5
20260506100518 5 270 17.7 27.4 0.00 0.76 0.25 98 1013.5
20260506100021 5 266 16.1 27.4 0.00 0.76 0.25 98 1013.5
20260506095524 5 275 16.1 27.4 0.00 0.79 0.25 98 1013.5
20260506095028 5 281 16.1 30.6 0.00 0.81 0.25 98 1013.4
20260506094530 4 273 14.5 30.6 0.00 0.81 0.25 98 1013.5
20260506094033 4 271 14.5 25.7 0.00 0.84 0.25 98 1013.5
20260506093536 4 270 14.5 22.5 0.00 0.84 0.25 98 1013.5
20260506093111 4 262 14.5 24.1 0.00 0.86 0.25 98 1013.5
20260506093039 4 262 14.5 24.1 0.00 0.86 0.25 98 1013.5
20260506092542 4 267 12.9 29.0 0.00 0.89 0.25 98 1013.5
20260506092137 4 272 17.7 29.0 0.00 0.89 0.25 98 1013.4
20260506092045 4 272 17.7 29.0 0.00 0.89 0.25 98 1013.4
20260506091548 4 260 16.1 29.0 0.00 0.91 0.25 98 1013.5
20260506091051 4 271 12.9 30.6 0.00 0.94 0.25 98 1013.5
20260506090554 4 265 17.7 30.6 0.00 0.99 0.25 98 1013.5
20260506090154 4 264 14.5 30.6 0.00 1.02 0.25 98 1013.6
20260506090058 4 264 14.5 30.6 0.00 1.02 0.25 98 1013.6
20260506085600 4 259 19.3 32.2 0.00 1.07 0.25 98 1013.6
20260506085103 4 267 17.7 32.2 0.00 1.09 0.25 98 1013.6
20260506084109 4 259 19.3 30.6 0.00 1.14 0.25 98 1013.7
20260506083612 4 265 17.7 30.6 0.00 1.17 0.25 99 1013.9
20260506083115 4 273 16.1 33.8 0.00 1.19 0.25 98 1013.9
20260506082618 4 275 16.1 33.8 0.00 1.19 0.25 99 1013.9
20260506082121 3 271 16.1 29.0 0.00 1.19 0.25 98 1013.8
20260506081624 3 260 16.1 29.0 0.00 1.19 0.25 98 1013.9
20260506081127 3 239 17.7 29.0 0.00 1.22 0.25 98 1013.8
20260506080629 3 256 16.1 29.0 0.00 1.24 0.25 98 1014.0
20260506080133 3 249 20.9 29.0 0.00 1.24 0.25 98 1014.0
20260506073224 3 257 22.5 29.0 0.00 1.24 0.25 98 1014.1
20260506073150 3 257 22.5 29.0 0.00 1.24 0.25 98 1014.1
20260506072653 3 248 20.9 29.0 0.00 1.24 0.25 98 1014.0
20260506072157 3 255 19.3 29.0 0.00 1.24 0.25 98 1013.9
20260506071700 3 261 20.9 33.8 0.00 1.24 0.25 98 1014.2
20260506071203 3 255 19.3 33.8 0.00 1.24 0.25 98 1014.1
20260506070909 3 247 22.5 33.8 0.00 1.24 0.25 98 1014.0
20260506070706 3 247 22.5 33.8 0.00 1.24 0.25 98 1014.0
20260506070209 4 250 25.7 33.8 0.00 1.24 0.25 98 1014.0
20260506062233 4 258 19.3 35.4 0.00 1.24 0.25 98 1013.7
20260506061736 4 247 22.5 35.4 0.00 1.24 0.25 98 1013.6
20260506061239 4 261 25.7 33.8 0.00 1.24 0.25 97 1013.8
20260506060742 4 255 25.7 33.8 0.00 1.24 0.25 97 1013.8
20260506060245 4 257 24.1 33.8 0.00 1.24 0.25 97 1013.6
20260506051316 5 258 20.9 33.8 0.00 1.27 0.25 98 1013.5
20260506050321 5 259 17.7 30.6 0.00 1.27 0.25 98 1013.5
20260506044830 5 254 19.3 35.4 0.00 1.27 0.25 97 1013.4
20260506044333 5 256 22.5 35.4 0.00 1.27 0.25 97 1013.4
20260506043835 5 261 24.1 33.8 0.00 1.27 0.25 97 1013.3
20260506043339 5 258 27.4 33.8 0.00 1.27 0.25 97 1013.2
20260506042940 5 257 25.7 37.0 0.00 1.27 0.25 97 1013.1
20260506042842 5 257 25.7 37.0 0.00 1.27 0.25 97 1013.1
20260506042345 5 257 25.7 37.0 0.00 1.27 0.25 97 1013.0
20260506041848 5 256 24.1 35.4 0.00 1.27 0.25 97 1013.0
20260506041351 5 256 25.7 35.4 0.00 1.27 0.25 97 1012.9
20260506040854 5 262 22.5 37.0 0.00 1.27 0.25 97 1012.8
20260506035933 5 261 25.7 35.4 0.00 1.27 0.25 97 1012.6
20260506035900 5 261 25.7 35.4 0.00 1.27 0.25 97 1012.6
20260506035403 5 258 25.7 35.4 0.00 1.27 0.25 97 1012.6
20260506034956 5 255 24.1 35.4 0.00 1.27 0.25 97 1012.6
20260506034906 5 255 24.1 35.4 0.00 1.27 0.25 97 1012.6
20260506034409 5 256 25.7 35.4 0.00 1.27 0.25 97 1012.4
20260506033946 5 257 27.4 35.4 0.00 1.27 0.25 97 1012.3
20260506033912 5 257 27.4 35.4 0.00 1.27 0.25 97 1012.3
20260506033456 5 257 20.9 33.8 0.00 1.27 0.25 97 1012.4
20260506033416 5 257 20.9 33.8 0.00 1.27 0.25 97 1012.4
20260506032917 5 250 22.5 37.0 0.00 1.27 0.25 97 1012.3
20260506032421 5 259 22.5 37.0 0.00 1.27 0.25 96 1012.2
20260506031427 5 269 24.1 33.8 0.00 1.27 0.25 96 1012.1
20260506030930 5 270 20.9 33.8 0.00 1.27 0.25 96 1012.2
20260506025936 5 260 22.5 35.4 0.00 1.27 0.25 95 1012.1
20260506025439 5 256 20.9 35.4 0.00 1.27 0.25 95 1011.9
20260506024942 5 260 19.3 32.2 0.00 1.27 0.25 95 1011.9
20260506023948 5 267 17.7 33.8 0.00 1.27 0.25 94 1011.9
20260506023451 5 257 20.9 38.6 0.00 1.27 0.25 94 1011.8
20260506022955 5 258 25.7 38.6 0.00 1.27 0.25 93 1011.7
20260506022456 5 251 29.0 38.6 0.00 1.27 0.25 93 1011.6
20260506022000 5 252 25.7 38.6 0.00 1.27 0.25 93 1011.6
20260506021006 5 251 25.7 35.4 0.00 1.27 0.25 92 1011.5
20260506020509 6 266 20.9 27.4 0.00 1.27 0.25 91 1011.5
20260506020012 6 264 16.1 37.0 0.00 1.27 0.25 90 1011.4
20260506015514 6 266 20.9 37.0 0.00 1.27 0.25 90 1011.3
20260506015019 6 268 20.9 37.0 0.00 1.27 0.25 89 1011.1
20260506014521 6 270 22.5 33.8 0.00 1.27 0.25 88 1011.1
20260506014256 6 260 20.9 35.4 0.00 1.27 0.25 87 1010.9
20260506014024 6 260 20.9 35.4 0.00 1.27 0.25 87 1010.9
20260506013527 6 266 24.1 38.6 0.00 1.27 0.25 86 1011.0
20260506013219 7 271 24.1 38.6 0.00 1.27 0.25 85 1011.1
20260506013030 7 271 24.1 38.6 0.00 1.27 0.25 85 1011.1
20260506012719 7 277 20.9 30.6 0.00 1.27 0.25 84 1011.2
20260506012533 7 277 20.9 30.6 0.00 1.27 0.25 84 1011.2
20260506012146 7 256 19.3 38.6 0.00 1.27 0.25 84 1011.1
20260506012036 7 256 19.3 38.6 0.00 1.27 0.25 84 1011.1
20260506011539 7 251 22.5 38.6 0.00 1.27 0.25 83 1011.1
20260506011042 7 250 17.7 33.8 0.00 1.27 0.25 82 1011.0
20260506005054 8 267 16.1 37.0 0.00 1.27 0.25 81 1011.0
20260506004100 8 262 14.5 40.2 0.00 1.27 0.25 81 1011.0
20260506003603 8 275 19.3 40.2 0.00 1.27 0.25 81 1010.6
20260506003106 8 270 27.4 37.0 0.00 1.27 0.25 80 1010.6
20260506002740 8 267 17.7 40.2 0.00 1.27 0.25 81 1010.6
20260506002609 8 267 17.7 40.2 0.00 1.27 0.25 81 1010.6
20260506002112 8 288 20.9 40.2 0.00 1.27 0.25 81 1010.5
20260506001615 7 276 19.3 32.2 0.00 1.27 0.25 83 1010.4
20260506001118 7 261 20.9 38.6 0.00 1.27 0.25 83 1010.5
20260506000701 7 266 17.7 46.7 0.00 1.27 0.25 82 1010.4
20260506000622 7 266 17.7 46.7 0.00 1.27 0.25 82 1010.4
20260506000124 8 271 22.5 46.7 0.00 1.27 0.25 79 1010.3
20260505235627 8 255 30.6 45.1 0.00 1.27 0.25 79 1010.5
20260505235129 7 267 25.7 37.0 0.00 1.27 0.25 84 1010.1
20260505234633 7 274 19.3 43.5 0.00 1.27 0.25 83 1010.0
20260505234136 7 279 27.4 45.1 0.00 1.27 0.25 79 1010.0
20260505233639 8 275 25.7 45.1 0.00 1.27 0.25 81 1010.1
20260505233142 7 249 29.0 46.7 0.00 1.27 0.25 79 1010.0
20260505231651 7 254 24.1 49.9 0.00 1.27 0.25 82 1010.2
20260505231154 7 258 30.6 51.5 0.00 1.27 0.25 81 1010.2
20260505230657 7 252 29.0 51.5 0.00 1.27 0.25 81 1009.9
20260505225703 8 289 33.8 46.7 0.00 1.27 0.25 80 1009.8
20260505225206 8 263 17.7 43.5 0.00 1.27 0.25 81 1010.1
20260505224709 8 275 19.3 48.3 0.00 1.27 0.25 80 1010.2
20260505223715 8 257 19.3 48.3 0.00 1.27 0.25 82 1010.3
20260505223218 8 260 30.6 48.3 0.00 1.27 0.25 80 1010.3
20260505222721 8 271 24.1 45.1 0.00 1.27 0.25 81 1010.5
20260505222224 9 255 32.2 46.7 0.00 1.27 0.25 81 1010.4
20260505220733 8 265 32.2 48.3 0.00 1.27 0.25 81 1011.3
20260505220236 9 251 32.2 46.7 0.00 1.27 0.25 82 1011.3
20260505215739 8 263 24.1 45.1 0.00 1.27 0.25 85 1011.3
20260505215242 8 260 35.4 45.1 0.00 1.27 0.25 85 1011.4
20260505214745 8 282 17.7 41.8 0.00 1.27 0.25 88 1011.3
20260505214248 8 266 30.6 48.3 0.00 1.27 0.25 90 1011.4
20260505213752 7 257 25.7 48.3 0.00 1.27 0.25 91 1011.6
20260505213254 7 269 22.5 38.6 0.00 1.27 0.25 92 1011.5
20260505212833 7 261 24.1 40.2 0.00 1.27 0.25 93 1011.7
20260505212757 7 261 24.1 40.2 0.00 1.27 0.25 93 1011.7
20260505212300 7 261 29.0 40.2 0.00 1.27 0.25 93 1011.6
20260505211803 7 267 22.5 41.8 0.00 1.27 0.25 93 1011.7
20260505211346 7 259 22.5 43.5 0.00 1.27 0.25 93 1011.8
20260505211306 7 259 22.5 43.5 0.00 1.27 0.25 93 1011.8
20260505210809 7 261 29.0 45.1 0.00 1.27 0.25 92 1011.8
20260505210312 7 268 27.4 48.3 0.00 1.27 0.25 93 1011.7
20260505205850 7 260 32.2 48.3 0.00 1.27 0.25 93 1011.9
20260505205816 7 260 32.2 48.3 0.00 1.27 0.25 93 1011.9
20260505205318 7 253 25.7 45.1 0.00 1.27 0.25 93 1012.0